Weather History for Elko, NV

Change the Weather History Date:

Friday, July 26, 2013

  Actual Average Record
Temperature  
Mean Temperature 80 °F 71 °F  
Max Temperature 98 °F 92 °F 102 °F (1931)
Min Temperature 62 °F 51 °F 35 °F (1990)
Degree Days  
Heating Degree Days 0 0  
Month to date heating degree days 0 17  
Since 1 June heating degree days 63 148  
Since 1 July heating degree days 0 17  
Cooling Degree Days 15 7  
Month to date cooling degree days 317 150  
Year to date cooling degree days 444 201  
Since 1 June cooling degree days 440 197  
Growing Degree Days 30 (Base 50)    
Moisture  
Dew Point 42 °F    
Average Humidity 27    
Maximum Humidity 41    
Minimum Humidity 12    
Precipitation  
Precipitation 0.01 in 0.01 in 0.08 in (1941)
Month to date precipitation 0.45 0.30  
Year to date precipitation 3.31 5.84  
Snow  
Snow 0.00 in 0.00 in 0.00 in (1888)
Month to date snowfall 0.0 0.0  
Since 1 June snowfall 0.0 0.0  
Since 1 July snowfall 0.0 0.0  
Snow Depth 0.00 in    
Sea Level Pressure  
Sea Level Pressure 30.01 in    
Wind  
Wind Speed 4 mph (SW)    
Max Wind Speed 25 mph    
Max Gust Speed 32 mph    
Visibility 10 miles    
Events Rain , Thunderstorm    
T = Trace of Precipitation, MM = Missing Value Source: NWS Daily Summary

Daily Weather History Graph

Daily Weather History Graph

Search for Another Location

Airport:

Trip Planner

Search our weather history database for the weather conditions in past years. The results will help you decide how hot, cold, wet, or windy it might be!

Date:

Astronomy

Jul. 26, 2013 Rise Set
Actual Time 5:34 AM PDT 8:04 PM PDT
Civil Twilight 5:02 AM PDT 8:35 PM PDT
Nautical Twilight 4:23 AM PDT 9:14 PM PDT
Astronomical Twilight 3:40 AM PDT 9:58 PM PDT
Moon 10:18 PM PDT (7/26) 10:17 AM PDT (7/26)
Length of Visible Light 15h 32m
Length of Day
14h 30m
Waning Gibbous, 79% of the Moon is Illuminated
Jul 26
Waning Gibbous
Jul 29
Last Quarter
Aug 6
New
Aug 14
First Quarter
Aug 20
Full

Hourly Weather History & Observations

Time (PDT) Temp. Dew Point Humidity Pressure Visibility Wind Dir Wind Speed Gust Speed Precip Events Conditions
12:56 AM 72.0 °F 36.0 °F 27% 29.99 in 10.0 mi Calm Calm - N/A   Partly Cloudy
1:56 AM 69.1 °F 39.9 °F 35% 30.00 in 10.0 mi Calm Calm - N/A   Clear
2:56 AM 70.0 °F 37.0 °F 30% 30.01 in 10.0 mi Calm Calm - N/A   Clear
3:56 AM 66.9 °F 35.1 °F 31% 30.02 in 10.0 mi Calm Calm - N/A   Clear
4:56 AM 68.0 °F 36.0 °F 31% 30.03 in 10.0 mi Calm Calm - N/A   Clear
5:56 AM 63.0 °F 37.9 °F 40% 30.06 in 10.0 mi WNW 3.5 mph - N/A   Clear
6:56 AM 69.1 °F 37.0 °F 31% 30.07 in 10.0 mi Calm Calm - N/A   Clear
7:56 AM 71.1 °F 39.0 °F 31% 30.09 in 10.0 mi East 4.6 mph - N/A   Clear
8:56 AM 78.1 °F 35.1 °F 21% 30.08 in 10.0 mi Calm Calm - N/A   Clear
9:56 AM 84.0 °F 36.0 °F 18% 30.06 in 10.0 mi Calm Calm - N/A   Clear
10:56 AM 88.0 °F 37.9 °F 17% 30.05 in 10.0 mi Calm Calm - N/A   Clear
11:56 AM 89.1 °F 37.9 °F 16% 30.02 in 10.0 mi Calm Calm - N/A   Clear
12:56 PM 93.9 °F 37.9 °F 14% 29.99 in 10.0 mi Variable 3.5 mph - N/A   Clear
1:56 PM 93.9 °F 37.0 °F 14% 29.97 in 10.0 mi SSW 4.6 mph - N/A   Clear
2:56 PM 96.1 °F 37.9 °F 13% 29.94 in 10.0 mi ESE 9.2 mph - N/A   Clear
3:56 PM 95.0 °F 37.9 °F 14% 29.92 in 10.0 mi WSW 10.4 mph - N/A   Clear
4:56 PM 95.0 °F 36.0 °F 13% 29.90 in 10.0 mi North 5.8 mph - N/A   Clear
5:32 PM 77.0 °F 55.4 °F 47% 30.13 in 4.0 mi SW 24.2 mph 32.2 mph 0.01 in Rain Rain
5:43 PM 77.0 °F 55.4 °F 47% 30.14 in 10.0 mi WSW 20.7 mph 28.8 mph 0.01 in Rain , Thunderstorm Light Rain
5:56 PM 79.0 °F 52.0 °F 39% 29.99 in 10.0 mi SW 12.7 mph - 0.01 in   Partly Cloudy
6:56 PM 84.9 °F 48.9 °F 29% 29.96 in 10.0 mi Calm Calm - N/A   Clear
7:56 PM 82.0 °F 46.0 °F 28% 29.96 in 10.0 mi South 4.6 mph - N/A   Clear
8:56 PM 82.0 °F 46.0 °F 28% 29.97 in 10.0 mi West 5.8 mph - N/A   Clear
9:56 PM 78.1 °F 48.0 °F 35% 29.99 in 10.0 mi WSW 5.8 mph - N/A   Clear
10:56 PM 73.9 °F 48.9 °F 41% 30.00 in 10.0 mi SW 5.8 mph - N/A   Clear
11:56 PM 73.9 °F 48.0 °F 40% 30.00 in 10.0 mi SSW 8.1 mph - N/A   Clear